Weather History for KOCW - November, 2012

Change the Weather History Date:

Monday, November 12, 2012

  Actual Average (KEWN) Record (KEWN)
Temperature  
Mean Temperature 64 °F 56 °F  
Max Temperature 78 °F 68 °F 83 °F (1989)
Min Temperature 50 °F 45 °F 27 °F (1973)
Degree Days  
Heating Degree Days 1 9  
Month to date heating degree days 96  
Since 1 July heating degree days 213  
Cooling Degree Days 0 1  
Month to date cooling degree days 12  
Year to date cooling degree days 1897  
Growing Degree Days 14 (Base 50)    
Moisture  
Dew Point 56 °F    
Average Humidity 74    
Maximum Humidity 81    
Minimum Humidity 52    
Precipitation  
Precipitation 0.02 in 0.11 in 2.86 in (2009)
Month to date precipitation 1.31  
Year to date precipitation 47.26  
Snow  
Snow 0.00 in - - ()
Month to date snowfall  
Since 1 July snowfall  
Snow Depth -    
Sea Level Pressure  
Sea Level Pressure 30.34 in    
Wind  
Wind Speed 3 mph (SE)    
Max Wind Speed 12 mph    
Max Gust Speed 17 mph    
Visibility 9 miles    
Events Rain    
T = Trace of Precipitation, MM = Missing Value Source: NWS Daily Summary

Daily Weather History Graph

Daily Weather History Graph

Search for Another Location

Airport or City:

Trip Planner

Search our weather history database for the weather conditions in past years. The results will help you decide how hot, cold, wet, or windy it might be!

Date:

Astronomy

Nov. 12, 2012 Rise Set
Actual Time 6:41 AM EST 5:03 PM EST
Civil Twilight 6:14 AM EST 5:30 PM EST
Nautical Twilight 5:43 AM EST 6:00 PM EST
Astronomical Twilight 5:13 AM EST 6:30 PM EST
Moon 5:06 AM EST (11/12) 4:05 PM EST (11/12)
Length of Visible Light 11h 15m
Length of Day
10h 21m
Waning Crescent, 2% of the Moon is Illuminated
Nov 12
Waning Crescent
Nov 13
New
Nov 20
First Quarter
Nov 28
Full
Dec 6
Last Quarter

Hourly Weather History & Observations

Time (EST) Temp. Dew Point Humidity Pressure Visibility Wind Dir Wind Speed Gust Speed Precip Events Conditions
12:15 AM 52.7 °F 46.9 °F 81% 30.47 in 10.0 mi East 3.5 mph - N/A   Clear
12:35 AM 52.7 °F 46.9 °F 81% 30.46 in 10.0 mi East 3.5 mph - N/A   Clear
12:55 AM 52.7 °F 46.9 °F 81% 30.45 in 10.0 mi East 3.5 mph - N/A   Clear
1:15 AM 52.7 °F 46.9 °F 81% 30.44 in 10.0 mi Calm Calm - N/A   Clear
1:55 AM 52.7 °F 46.9 °F 81% 30.43 in 10.0 mi Calm Calm - N/A   Clear
2:15 AM 52.7 °F 46.9 °F 81% 30.43 in 10.0 mi Calm Calm - N/A   Clear
2:35 AM 52.7 °F 46.9 °F 81% 30.43 in 10.0 mi Calm Calm - N/A   Clear
2:55 AM 52.7 °F 46.9 °F 81% 30.43 in 10.0 mi Calm Calm - N/A   Clear
3:15 AM 52.7 °F 46.9 °F 81% 30.42 in 7.0 mi Calm Calm - N/A   Clear
3:35 AM 52.7 °F 46.9 °F 81% 30.41 in 7.0 mi Calm Calm - N/A   Clear
3:55 AM 52.7 °F 46.9 °F 81% 30.41 in 5.0 mi Calm Calm - N/A   Haze
4:15 AM 52.7 °F 46.9 °F 81% 30.41 in 7.0 mi Calm Calm - N/A   Clear
4:35 AM 52.7 °F 46.9 °F 81% 30.41 in 7.0 mi Calm Calm - N/A   Clear
4:55 AM 52.7 °F 46.9 °F 81% 30.41 in 4.0 mi Calm Calm - N/A   Haze
5:15 AM 52.2 °F 46.4 °F 81% 30.42 in 7.0 mi Calm Calm - N/A   Clear
5:35 AM 51.3 °F 45.7 °F 81% 30.41 in 1.2 mi Calm Calm - N/A   Haze
5:55 AM 50.2 °F 44.6 °F 81% 30.42 in 3.0 mi Calm Calm - N/A   Haze
6:15 AM 52.7 °F 46.9 °F 81% 30.42 in 4.0 mi Calm Calm - N/A   Haze
6:35 AM 52.7 °F 46.9 °F 81% 30.42 in 1.5 mi Calm Calm - N/A   Haze
6:55 AM 52.7 °F 46.9 °F 81% 30.41 in 4.0 mi Calm Calm - N/A   Haze
7:15 AM 52.7 °F 46.9 °F 81% 30.41 in 4.0 mi Calm Calm - N/A   Haze
7:55 AM 58.1 °F 52.0 °F 80% 30.41 in 10.0 mi East 3.5 mph - N/A   Clear
8:15 AM 58.1 °F 52.0 °F 80% 30.42 in 10.0 mi Calm Calm - N/A   Clear
8:35 AM 60.6 °F 54.5 °F 80% 30.41 in 10.0 mi East 3.5 mph - N/A   Clear
8:55 AM 63.0 °F 55.9 °F 78% 30.41 in 10.0 mi Calm Calm - N/A   Clear
9:15 AM 65.7 °F 57.2 °F 74% 30.41 in 10.0 mi ESE 3.5 mph - N/A   Clear
9:35 AM 68.0 °F 58.3 °F 71% 30.41 in 10.0 mi SE 4.6 mph - N/A   Clear
9:55 AM 70.7 °F 59.9 °F 69% 30.40 in 10.0 mi SE 4.6 mph - N/A   Clear
10:15 AM 73.0 °F 61.7 °F 67% 30.40 in 10.0 mi SE 4.6 mph - N/A   Clear
10:55 AM 73.0 °F 59.4 °F 62% 30.39 in 10.0 mi SE 9.2 mph - N/A   Clear
11:15 AM 73.2 °F 59.7 °F 63% 30.38 in 10.0 mi SE 10.4 mph - N/A   Clear
11:35 AM 74.5 °F 60.6 °F 62% 30.37 in 10.0 mi SE 9.2 mph - N/A   Clear
11:55 AM 75.6 °F 61.0 °F 60% 30.36 in 10.0 mi SE 8.1 mph - N/A   Clear
12:15 PM 77.9 °F 62.1 °F 58% 30.35 in 10.0 mi SE 10.4 mph 17.3 mph N/A   Clear
12:35 PM 78.1 °F 61.9 °F 57% 30.34 in 10.0 mi SSE 8.1 mph - N/A   Clear
12:55 PM 78.1 °F 62.4 °F 58% 30.34 in 10.0 mi SE 6.9 mph - N/A   Scattered Clouds
1:15 PM 78.1 °F 61.7 °F 57% 30.32 in 10.0 mi SSE 4.6 mph - N/A   Clear
1:35 PM 78.1 °F 60.8 °F 55% 30.32 in 10.0 mi SE 6.9 mph - N/A   Clear
1:55 PM 78.1 °F 59.4 °F 52% 30.31 in 10.0 mi SE 9.2 mph - N/A   Clear
2:15 PM 76.6 °F 59.2 °F 55% 30.31 in 10.0 mi SSE 8.1 mph - N/A   Clear
2:35 PM 75.6 °F 59.7 °F 58% 30.30 in 10.0 mi ESE 6.9 mph - N/A   Scattered Clouds
2:55 PM 75.0 °F 60.6 °F 61% 30.29 in 10.0 mi SE 10.4 mph - N/A   Scattered Clouds
3:15 PM 74.7 °F 60.4 °F 61% 30.29 in 10.0 mi ESE 9.2 mph - N/A   Clear
3:35 PM 73.0 °F 59.9 °F 63% 30.29 in 10.0 mi SE 11.5 mph - N/A   Clear
3:55 PM 73.0 °F 60.8 °F 65% 30.28 in 10.0 mi SE 8.1 mph - N/A   Clear
4:15 PM 73.0 °F 61.9 °F 68% 30.28 in 10.0 mi SE 8.1 mph - N/A   Clear
4:35 PM 73.0 °F 62.8 °F 70% 30.28 in 10.0 mi SE 6.9 mph - N/A   Scattered Clouds
4:55 PM 72.7 °F 63.5 °F 73% 30.27 in 10.0 mi SE 6.9 mph - N/A   Clear
5:15 PM 70.3 °F 62.1 °F 75% 30.28 in 10.0 mi SE 5.8 mph - N/A   Clear
5:35 PM 70.7 °F 62.6 °F 75% 30.27 in 10.0 mi SE 4.6 mph - N/A   Mostly Cloudy
5:55 PM 68.2 °F 60.8 °F 77% 30.27 in 10.0 mi SE 6.9 mph - N/A   Mostly Cloudy
6:15 PM 68.0 °F 60.8 °F 78% 30.27 in 10.0 mi SSE 4.6 mph - N/A   Overcast
6:35 PM 68.0 °F 61.0 °F 78% 30.27 in 10.0 mi SE 6.9 mph - N/A   Overcast
6:55 PM 68.0 °F 61.0 °F 78% 30.28 in 10.0 mi South 6.9 mph - N/A   Overcast
7:15 PM 66.0 °F 59.5 °F 80% 30.29 in 7.0 mi South 4.6 mph - 0.01 in Rain Rain
7:35 PM 65.5 °F 59.4 °F 81% 30.28 in 7.0 mi South 3.5 mph - 0.01 in   Drizzle
7:55 PM 64.9 °F 58.8 °F 81% 30.27 in 10.0 mi SE 3.5 mph - 0.01 in   Overcast
8:15 PM 64.8 °F 58.6 °F 81% 30.27 in 10.0 mi SE 3.5 mph - N/A   Overcast
8:35 PM 64.6 °F 58.3 °F 80% 30.26 in 10.0 mi SE 6.9 mph - N/A   Overcast
8:55 PM 64.8 °F 58.8 °F 81% 30.26 in 10.0 mi SSE 5.8 mph - N/A   Overcast
9:35 PM 65.1 °F 59.0 °F 81% 30.25 in 10.0 mi SSE 6.9 mph - 0.01 in   Mostly Cloudy
9:55 PM 64.6 °F 58.5 °F 80% 30.25 in 10.0 mi SSE 3.5 mph - 0.01 in   Scattered Clouds
10:15 PM 64.4 °F 58.3 °F 80% 30.24 in 10.0 mi South 4.6 mph - N/A   Clear
10:35 PM 64.4 °F 58.1 °F 80% 30.24 in 10.0 mi SSE 4.6 mph - N/A   Clear
10:55 PM 64.2 °F 58.1 °F 80% 30.24 in 10.0 mi SSE 3.5 mph - N/A   Clear
11:15 PM 64.4 °F 58.1 °F 80% 30.23 in 10.0 mi SSE 4.6 mph - N/A   Clear
11:35 PM 64.4 °F 58.1 °F 80% 30.22 in 10.0 mi SSE 4.6 mph - N/A   Clear
11:55 PM 64.4 °F 58.1 °F 80% 30.22 in 10.0 mi SSE 5.8 mph - N/A   Clear